Flag for Iran Weather past 2 weeks in Bandar-Abbas, Iran

Now
88 °F

Haze.


Feels Like: 94 °F
Forecast: 84 / 102 °F
Wind: 5 mph from Northwest

Location: Bandarabbass

Current Time: Sep 1, 2015 at 4:43:04 AM

Latest Report: Sep 1, 2015 at 3:30 AM


Visibility: 3 mi

Pressure: 29.56 "Hg

Humidity: 59%

Dew point: 72 °F

Location of Bandar-AbbasLocation

Historic Weather in Bandar-Abbas — Graph

°F

Bandar-Abbas temperature yesterday

Maximum temperature yesterday: 108 °F (at 10:30 AM)
Minimum temperature yesterday: 84 °F (at 6:30 AM)
Average temperature yesterday: 97 °F

Past Weeks' High & Low Weather Summary

 TemperatureHumidityPressure
High108 °F (Aug 27, 1:00 PM)89% (Aug 17, 7:00 AM)29.68 "Hg (Aug 17, 7:00 AM)
Low84 °F (Aug 26, 6:30 AM)26% (Aug 31, 10:30 AM)29.47 "Hg (Aug 22, 4:00 PM)
Average94 °F67%29.56 "Hg
* Reported Aug 17 3:30 AM — Sep 1 3:30 AM, Bandar-Abbas, Weather by CustomWeather, © 2015

Note: Actual official high and low records may vary slightly from our data, if they occured in-between our weather recording intervals... More about our weather records

Advertising

Bandar-Abbas weather history for previous 24 hours

 ConditionsComfort  
Time TempWeatherWind HumidityBarometerVisibility
3:30 AM
Tue, Sep 1
88 °FHaze.5 mph59%29.56 "Hg3 mi
2:30 AM90 °FHaze.7 mph59%29.59 "Hg3 mi
2:00 AM91 °FHaze.9 mph63%29.59 "Hg3 mi
1:30 AM91 °FHaze.9 mph63%29.59 "Hg3 mi
1:00 AM91 °FHaze.9 mph67%29.59 "Hg3 mi
12:30 AM91 °FHaze.9 mph71%29.59 "Hg3 mi
12:00 AM91 °FHaze.9 mph71%29.59 "Hg3 mi
11:30 PM
Mon, Aug 31
93 °FHaze.5 mph63%29.59 "Hg3 mi
11:00 PM93 °FHaze.5 mph67%29.59 "Hg3 mi
10:30 PM95 °FHaze.9 mph60%29.59 "Hg3 mi
10:00 PM95 °FHaze.9 mph56%29.59 "Hg3 mi
9:30 PM97 °FHaze.7 mph56%29.59 "Hg3 mi
9:00 PM97 °FHaze.No wind56%29.56 "Hg3 mi
8:30 PM97 °FHaze.9 mph56%29.56 "Hg3 mi
8:00 PM97 °FHaze.9 mph56%29.56 "Hg3 mi
7:30 PM97 °FHaze.9 mph56%29.56 "Hg3 mi
7:00 PM97 °FHaze.9 mph56%29.56 "Hg3 mi
6:30 PM99 °FHaze.9 mph53%29.56 "Hg3 mi
6:00 PM99 °FHaze.12 mph60%29.56 "Hg3 mi
5:30 PM102 °FHaze.14 mph48%29.56 "Hg3 mi
5:00 PM102 °FHaze.14 mph45%29.56 "Hg3 mi
4:30 PM104 °FHaze.14 mph40%29.56 "Hg3 mi
4:00 PM104 °FHaze.14 mph40%29.56 "Hg3 mi
3:30 PM102 °FHaze.14 mph45%29.56 "Hg3 mi
3:00 PM104 °FHaze.14 mph45%29.59 "Hg3 mi
2:30 PM104 °FSandstorm.16 mph38%29.59 "Hg3 mi
2:00 PM104 °FClear.14 mph40%29.59 "Hg4 mi
1:30 PM104 °FSandstorm.16 mph38%29.62 "Hg3 mi
1:00 PM100 °FClear.14 mph57%29.62 "Hg4 mi
12:30 PM99 °FClear.12 mph64%29.62 "Hg4 mi
12:00 PM106 °FClear.9 mph36%29.62 "Hg4 mi
11:30 AM104 °FClear.9 mph45%29.65 "Hg4 mi
11:00 AM108 °FClear.7 mph38%29.65 "Hg4 mi
10:30 AM108 °FClear.No wind26%29.65 "Hg4 mi
10:00 AM104 °FHaze.5 mph33%29.62 "Hg3 mi
9:30 AM100 °FHaze.5 mph45%29.62 "Hg2 mi
9:00 AM99 °FHaze.5 mph50%29.62 "Hg2 mi
8:30 AM95 °FHaze.No wind63%29.62 "Hg2 mi
8:00 AM91 °FHaze.5 mph71%29.62 "Hg2 mi
7:30 AM86 °FHaze.No wind79%29.62 "Hg2 mi
7:00 AM86 °FHaze.5 mph75%29.59 "Hg2 mi
6:30 AM84 °FFog.5 mph84%29.59 "Hg2 mi
5:30 AM86 °FFog.No wind84%29.56 "Hg2 mi
4:30 AM88 °FFog.No wind84%29.56 "Hg2 mi
Weather by CustomWeather, © 2015

See weather overviewHow to use our weather pages